Time,TemperatureF,DewpointF,PressureIn,WindDirection,WindDirectionDegrees,WindSpeedMPH,WindSpeedGustMPH,Humidity,HourlyPrecipIn,Conditions,Clouds,dailyrainin,SoftwareType,DateUTC
2013-09-02 00:07:00,71.5,70.0,29.86,WSW,240,0.0,-999.0,96,-99.99,,,0.00,weatherlink.com 1.10,2013-09-02 04:07:00,
2013-09-02 00:22:00,71.6,70.0,29.86,WSW,240,0.0,-999.0,96,-99.99,,,0.00,weatherlink.com 1.10,2013-09-02 04:22:00,
2013-09-02 00:55:00,71.6,70.0,29.86,WSW,240,0.0,-999.0,96,-99.99,,,0.00,weatherlink.com 1.10,2013-09-02 04:55:00,
2013-09-02 01:07:00,71.3,70.0,29.86,WSW,240,0.0,-999.0,96,-99.99,,,0.00,weatherlink.com 1.10,2013-09-02 05:07:00,
2013-09-02 01:22:00,71.0,70.0,29.85,WSW,240,0.0,-999.0,97,-99.99,,,0.00,weatherlink.com 1.10,2013-09-02 05:22:00,
2013-09-02 01:55:00,70.9,70.0,29.85,WSW,240,0.0,-999.0,96,-99.99,,,0.00,weatherlink.com 1.10,2013-09-02 05:55:00,
2013-09-02 02:07:00,70.7,70.0,29.84,WSW,240,0.0,-999.0,97,-99.99,,,0.00,weatherlink.com 1.10,2013-09-02 06:07:00,
2013-09-02 02:22:00,70.7,70.0,29.84,WSW,240,0.0,-999.0,97,-99.99,,,0.00,weatherlink.com 1.10,2013-09-02 06:22:00,
2013-09-02 02:55:00,70.7,70.0,29.84,WSW,240,0.0,-999.0,97,-99.99,,,0.00,weatherlink.com 1.10,2013-09-02 06:55:00,
2013-09-02 03:08:00,70.6,70.0,29.84,WSW,240,0.0,-999.0,97,-99.99,,,0.00,weatherlink.com 1.10,2013-09-02 07:08:00,
2013-09-02 03:23:00,70.6,70.0,29.84,WSW,240,0.0,-999.0,97,-99.99,,,0.00,weatherlink.com 1.10,2013-09-02 07:23:00,
2013-09-02 03:54:00,70.6,70.0,29.84,WSW,240,0.0,-999.0,97,-99.99,,,0.00,weatherlink.com 1.10,2013-09-02 07:54:00,
2013-09-02 04:07:00,70.7,70.0,29.83,WSW,240,0.0,-999.0,97,-99.99,,,0.00,weatherlink.com 1.10,2013-09-02 08:07:00,
2013-09-02 04:22:00,70.8,70.0,29.83,WSW,240,0.0,-999.0,97,-99.99,,,0.00,weatherlink.com 1.10,2013-09-02 08:22:00,
2013-09-02 04:54:00,70.8,70.0,29.84,WSW,240,0.0,-999.0,97,-99.99,,,0.00,weatherlink.com 1.10,2013-09-02 08:54:00,
2013-09-02 05:07:00,70.5,70.0,29.84,WSW,240,0.0,-999.0,97,-99.99,,,0.00,weatherlink.com 1.10,2013-09-02 09:07:00,
2013-09-02 05:22:00,70.4,70.0,29.84,WSW,240,0.0,-999.0,97,-99.99,,,0.00,weatherlink.com 1.10,2013-09-02 09:22:00,
2013-09-02 05:54:00,70.4,70.0,29.84,WSW,240,0.0,-999.0,97,-99.99,,,0.00,weatherlink.com 1.10,2013-09-02 09:54:00,
2013-09-02 06:07:00,70.4,70.0,29.84,WSW,240,0.0,-999.0,97,-99.99,,,0.00,weatherlink.com 1.10,2013-09-02 10:07:00,
2013-09-02 06:22:00,70.3,69.0,29.84,WSW,240,0.0,-999.0,97,-99.99,,,0.00,weatherlink.com 1.10,2013-09-02 10:22:00,
2013-09-02 06:54:00,70.3,69.0,29.85,North,-999,-999.0,-999.0,97,-99.99,,,0.00,weatherlink.com 1.10,2013-09-02 10:54:00,
2013-09-02 07:07:00,70.2,69.0,29.85,WSW,240,0.0,-999.0,97,-99.99,,,0.00,weatherlink.com 1.10,2013-09-02 11:07:00,
2013-09-02 07:22:00,70.3,69.0,29.85,WSW,240,0.0,-999.0,97,-99.99,,,0.00,weatherlink.com 1.10,2013-09-02 11:22:00,
2013-09-02 07:54:00,70.3,69.0,29.85,WSW,240,0.0,-999.0,97,-99.99,,,0.00,weatherlink.com 1.10,2013-09-02 11:54:00,
2013-09-02 08:07:00,70.7,70.0,29.85,WSW,240,0.0,-999.0,97,-99.99,,,0.00,weatherlink.com 1.10,2013-09-02 12:07:00,
2013-09-02 08:22:00,70.9,70.0,29.85,WSW,240,0.0,-999.0,97,-99.99,,,0.00,weatherlink.com 1.10,2013-09-02 12:22:00,
2013-09-02 08:54:00,71.1,70.0,29.86,WSW,240,0.0,-999.0,97,-99.99,,,0.00,weatherlink.com 1.10,2013-09-02 12:54:00,
2013-09-02 09:07:00,71.7,71.0,29.86,WSW,240,0.0,-999.0,97,-99.99,,,0.00,weatherlink.com 1.10,2013-09-02 13:07:00,
2013-09-02 09:22:00,72.0,71.0,29.86,WSW,240,0.0,-999.0,97,-99.99,,,0.00,weatherlink.com 1.10,2013-09-02 13:22:00,
2013-09-02 09:54:00,72.2,71.0,29.87,WSW,240,0.0,-999.0,97,-99.99,,,0.00,weatherlink.com 1.10,2013-09-02 13:54:00,
2013-09-02 10:07:00,73.7,73.0,29.88,WSW,240,0.0,-999.0,97,-99.99,,,0.00,weatherlink.com 1.10,2013-09-02 14:07:00,
2013-09-02 10:22:00,74.3,73.0,29.88,WSW,240,0.0,-999.0,97,-99.99,,,0.00,weatherlink.com 1.10,2013-09-02 14:22:00,
2013-09-02 10:54:00,74.5,73.0,29.89,WSW,240,0.0,-999.0,96,-99.99,,,0.00,weatherlink.com 1.10,2013-09-02 14:54:00,
2013-09-02 11:07:00,76.4,75.0,29.88,WSW,240,0.0,-999.0,94,-99.99,,,0.00,weatherlink.com 1.10,2013-09-02 15:07:00,
2013-09-02 11:22:00,77.6,75.0,29.89,WSW,240,0.0,-999.0,92,-99.99,,,0.00,weatherlink.com 1.10,2013-09-02 15:22:00,
2013-09-02 11:37:00,78.7,75.0,29.88,East,86,0.0,-999.0,89,-99.99,,,0.00,weatherlink.com 1.10,2013-09-02 15:37:00,
2013-09-02 11:52:00,79.8,75.0,29.88,East,86,0.0,-999.0,86,-99.99,,,0.00,weatherlink.com 1.10,2013-09-02 15:52:00,
2013-09-02 12:28:00,80.5,76.0,29.88,East,86,0.0,-999.0,85,-99.99,,,0.00,weatherlink.com 1.10,2013-09-02 16:28:00,
2013-09-02 12:37:00,81.4,76.0,29.87,East,86,0.0,-999.0,84,-99.99,,,0.00,weatherlink.com 1.10,2013-09-02 16:37:00,
2013-09-02 12:52:00,82.1,76.0,29.87,East,86,0.0,-999.0,81,-99.99,,,0.00,weatherlink.com 1.10,2013-09-02 16:52:00,
2013-09-02 13:28:00,82.6,76.0,29.86,East,86,0.0,-999.0,79,-99.99,,,0.00,weatherlink.com 1.10,2013-09-02 17:28:00,
2013-09-02 13:37:00,82.3,76.0,29.86,East,86,2.0,-999.0,81,-99.99,,,0.00,weatherlink.com 1.10,2013-09-02 17:37:00,
2013-09-02 13:53:00,82.7,75.0,29.85,East,86,0.0,-999.0,78,-99.99,,,0.00,weatherlink.com 1.10,2013-09-02 17:53:00,
2013-09-02 14:28:00,83.3,76.0,29.85,East,86,0.0,-999.0,79,-99.99,,,0.00,weatherlink.com 1.10,2013-09-02 18:28:00,
2013-09-02 14:37:00,84.0,75.0,29.84,East,86,0.0,-999.0,74,-99.99,,,0.00,weatherlink.com 1.10,2013-09-02 18:37:00,
2013-09-02 14:53:00,84.1,73.0,29.84,East,86,0.0,-999.0,69,-99.99,,,0.00,weatherlink.com 1.10,2013-09-02 18:53:00,
2013-09-02 15:29:00,84.0,75.0,29.83,East,86,0.0,-999.0,74,-99.99,,,0.00,weatherlink.com 1.10,2013-09-02 19:29:00,
2013-09-02 15:37:00,84.1,74.0,29.82,East,86,0.0,-999.0,71,-99.99,,,0.00,weatherlink.com 1.10,2013-09-02 19:37:00,
2013-09-02 15:52:00,83.8,74.0,29.82,East,86,0.0,-999.0,73,-99.99,,,0.00,weatherlink.com 1.10,2013-09-02 19:52:00,
2013-09-02 16:28:00,84.5,75.0,29.82,East,90,0.0,-999.0,73,-99.99,,,0.00,weatherlink.com 1.10,2013-09-02 20:28:00,
2013-09-02 16:37:00,85.1,75.0,29.81,ESE,104,0.0,-999.0,71,-99.99,,,0.00,weatherlink.com 1.10,2013-09-02 20:37:00,
2013-09-02 16:52:00,84.6,75.0,29.81,ESE,104,0.0,-999.0,73,-99.99,,,0.00,weatherlink.com 1.10,2013-09-02 20:52:00,
2013-09-02 17:28:00,84.2,76.0,29.81,ESE,104,0.0,-999.0,75,-99.99,,,0.00,weatherlink.com 1.10,2013-09-02 21:28:00,
2013-09-02 17:37:00,83.7,75.0,29.81,ESE,104,0.0,-999.0,76,-99.99,,,0.00,weatherlink.com 1.10,2013-09-02 21:37:00,
2013-09-02 17:52:00,84.3,76.0,29.81,ESE,104,0.0,-999.0,76,-99.99,,,0.01,weatherlink.com 1.10,2013-09-02 21:52:00,
2013-09-02 18:28:00,84.6,76.0,29.81,ESE,104,0.0,-999.0,76,-99.99,,,0.01,weatherlink.com 1.10,2013-09-02 22:28:00,
2013-09-02 18:36:00,84.3,76.0,29.80,ESE,104,0.0,-999.0,75,-99.99,,,0.01,weatherlink.com 1.10,2013-09-02 22:36:00,
2013-09-02 18:51:00,83.9,76.0,29.80,ESE,104,0.0,-999.0,76,-99.99,,,0.01,weatherlink.com 1.10,2013-09-02 22:51:00,
2013-09-02 19:28:00,83.3,76.0,29.80,ESE,104,0.0,-999.0,78,-99.99,,,0.01,weatherlink.com 1.10,2013-09-02 23:28:00,
2013-09-02 19:36:00,81.5,76.0,29.80,ESE,104,0.0,-999.0,82,-99.99,,,0.01,weatherlink.com 1.10,2013-09-02 23:36:00,
2013-09-02 19:51:00,80.7,75.0,29.81,ESE,104,0.0,-999.0,83,-99.99,,,0.01,weatherlink.com 1.10,2013-09-02 23:51:00,
2013-09-02 20:28:00,80.2,75.0,29.81,ESE,104,0.0,-999.0,85,-99.99,,,0.01,weatherlink.com 1.10,2013-09-03 00:28:00,
2013-09-02 20:36:00,78.9,75.0,29.82,ESE,104,0.0,-999.0,87,-99.99,,,0.01,weatherlink.com 1.10,2013-09-03 00:36:00,
2013-09-02 20:51:00,78.5,75.0,29.82,ESE,104,0.0,-999.0,88,-99.99,,,0.01,weatherlink.com 1.10,2013-09-03 00:51:00,
2013-09-02 21:28:00,78.4,75.0,29.83,ESE,104,0.0,-999.0,89,-99.99,,,0.01,weatherlink.com 1.10,2013-09-03 01:28:00,
2013-09-02 21:37:00,77.5,74.0,29.83,ESE,104,0.0,-999.0,90,-99.99,,,0.01,weatherlink.com 1.10,2013-09-03 01:37:00,
2013-09-02 21:52:00,77.2,75.0,29.83,ESE,104,0.0,-999.0,91,-99.99,,,0.01,weatherlink.com 1.10,2013-09-03 01:52:00,
2013-09-02 22:28:00,77.0,74.0,29.84,ESE,104,0.0,-999.0,91,-99.99,,,0.01,weatherlink.com 1.10,2013-09-03 02:28:00,
2013-09-02 22:36:00,76.5,74.0,29.83,ESE,104,0.0,-999.0,92,-99.99,,,0.01,weatherlink.com 1.10,2013-09-03 02:36:00,
2013-09-02 22:51:00,76.2,74.0,29.83,ESE,104,0.0,-999.0,92,-99.99,,,0.01,weatherlink.com 1.10,2013-09-03 02:51:00,
2013-09-02 23:28:00,75.9,74.0,29.83,ESE,104,0.0,-999.0,93,-99.99,,,0.01,weatherlink.com 1.10,2013-09-03 03:28:00,
2013-09-02 23:37:00,75.6,74.0,29.83,ESE,104,0.0,-999.0,94,-99.99,,,0.01,weatherlink.com 1.10,2013-09-03 03:37:00,
2013-09-02 23:52:00,75.6,74.0,29.82,ESE,104,0.0,-999.0,94,-99.99,,,0.01,weatherlink.com 1.10,2013-09-03 03:52:00,